Overview Statistics Trail Chart Weather Telemetry Raw packets
 

This is the latest recevied weather packets stored in our database for station/object AI5BL. If no packets are shown the sender has not sent any weather packets the latest 10 day(s).

<< 5 6 7 8 9 10 11 >>
Time Temp. Humidity Pressure Rain* Wind** Luminosity Snow
1788612021 23.89° C 99% 1016.7 hPa 0 mm - 48 W/m² -
1788611717 23.89° C 99% 1016.6 hPa 0 mm - 41 W/m² -
1788611413 23.33° C 99% 1016.7 hPa 0 mm - 35 W/m² -
1788611107 23.89° C 99% 1016.6 hPa 0 mm - 30 W/m² -
1788610823 23.89° C 99% 1016.6 hPa 0 mm - 25 W/m² -
1788610497 23.33° C 99% 1016.4 hPa 0 mm - 20 W/m² -
1788610196 23.33° C 99% 1016.5 hPa 0 mm - 17 W/m² -
1788609890 23.33° C 99% 1016.3 hPa 0 mm - 14 W/m² -
1788609586 23.33° C 99% 1016.4 hPa 0 mm - 11 W/m² -
1788609285 23.33° C 99% 1016.3 hPa 0 mm - 9 W/m² -
1788608980 23.33° C 99% 1016.4 hPa 0 mm - 7 W/m² -
1788608680 23.33° C 99% 1016.5 hPa 0 mm - 5 W/m² -
1788608378 23.33° C 99% 1016.3 hPa 0 mm - 4 W/m² -
1788608074 23.33° C 99% 1016.4 hPa 0 mm - 2 W/m² -
1788607770 23.33° C 99% 1016.2 hPa 0 mm - 1 W/m² -
1788607465 23.33° C 99% 1016.3 hPa 0 mm - 0 W/m² -
1788607160 23.33° C 99% 1016.3 hPa 0 mm - 0 W/m² -
1788606860 23.33° C 99% 1016.1 hPa 0 mm - 0 W/m² -
1788606555 23.33° C 99% 1016.2 hPa 0 mm - 0 W/m² -
1788606254 23.33° C 99% 1016.5 hPa 0 mm - 0 W/m² -
1788605949 23.33° C 99% 1016.4 hPa 0 mm - 0 W/m² -
1788605649 23.33° C 99% 1016.3 hPa 0 mm - 0 W/m² -
1788605348 23.33° C 99% 1016.4 hPa 0 mm - 0 W/m² -
1788605044 23.33° C 99% 1016.3 hPa 0 mm - 0 W/m² -
1788604744 23.33° C 99% 1016.3 hPa 0 mm - 0 W/m² -

* Rain latest hour (hover to see other rain measurements)
** Current wind speed in m/s (hover to see current wind gust speed)